www.pogodaiklimat.ru

Погода и климат >> Архив погоды >> Иран >> Кашан


ПОГОДА в Кашане

  • Прогноз погоды в Кашане
  • Монитор погоды в Кашане

АРХИВ ПОГОДЫ в Кашане

Время (UTC), дата Ветер
(напр.,м/с)
 
Видим.   Явления Облачность Т
(С)
Тd
(С)
f
(%)
Тe
(С)
Тes
(С)
Комфортность P
(гПа)
Po
(гПа)
Тmin
(С)
Tmax
(С)
R
(мм)
R24
(мм)
S
(см)
09 14.01 штиль 0 10 км 10/4 1200 м
[Sc As op]
+5.0 -5.2 48 +5 +6 1014.8 903.6
12 14.01 СЗ 4 10 км 6/3 1200 м
[Sc As trans]
+7.4 -3.7 45 +5 +5 1012.8 902.2
15 14.01 штиль 0 10 км 3/3 1200 м
[Sc]
+5.4 -3.2 54 +5 +5 1015.4 904.0 +7.8
18 14.01 штиль 0 10 км 3/0
[Ac trans]
+4.2 -2.8 60 +4 +4 1015.8 904.4
21 14.01 штиль 0 10 км 3/0
[Ac trans]
+1.8 -2.6 73 +1 +1 1016.4 904.8
00 15.01 штиль 0 10 км 3/0
[Ac trans]
+0.6 -2.0 83 -1 -1 1018.3 906.7
03 15.01 штиль 0 10 км 3/0
[Ac trans]
+0.6 -2.0 83 -1 -1 1018.3 906.7
06 15.01 штиль 0 10 км 3/0
[Ac trans]
+7.6 +1.6 66 +7 +11 1020.3 909.3
09 15.01 штиль 0 10 км 3/3 1200 м
[Sc]
+15.4 +1.5 39 +15 +22 1018.4 908.6
12 15.01 штиль 0 10 км 3/3 1200 м
[Sc]
+14.6 +1.5 41 +15 +16 1018.3 908.1
15 15.01 штиль 0 10 км ясно +9.4 -0.7 49 +9 +9 1021.2 909.8 +16.0
18 15.01 штиль 0 10 км ясно +7.0 +0.8 65 +6 +6 1021.6 911.0
21 15.01 штиль 0 10 км ясно +5.2 +0.8 73 +4 +4 909.9
00 16.01 штиль 0 10 км ясно +2.8 -0.3 80 +2 +2 1020.6 910.6
03 16.01 штиль 0 10 км ясно +0.8 -0.8 89 -0 -0 1021.4 909.9 +0.4
06 16.01 В 2 10 км ясно +6.2 +1.5 72 +4 +8 1020.5 909.7
09 16.01 СВ 2 10 км 3/0
[Ac trans]
+13.8 -0.4 38 +14 +20 1016.6 907.3
12 16.01 В 2 10 км 4/0
[Ac trans]
+15.4 -1.0 32 +16 +17 1013.9 904.7
15 16.01 штиль 0 10 км 6/3 1200 м
[Sc As trans]
+14.0 -0.7 36 +14 +14 1015.4 905.4 +16.6
18 16.01 штиль 0 10 км {дождь} 9/3 1200 м
[Sc As trans]
+10.8 +4.0 63 +10 +10 1014.8 905.4
21 16.01 штиль 0 10 км 5/0
[Ac trans]
+10.4 +4.5 67 +10 +10 1011.7 903.9
00 17.01 штиль 0 10 км 4/0
[Ac trans]
+6.2 +4.9 91 +5 +5 1010.4 902.3
03 17.01 ЮЗ 3 10 км 3/0
[Ac trans]
+4.4 +4.0 97 +1 +1 1009.3 900.7 +3.8
06 17.01 СВ 2 10 км 10/4 1200 м
[Sc As op]
+7.4 +5.7 89 +5 +6 1007.1 898.8
09 17.01 СЗ 2 6000 м слаб. дождь {гроза} 10/5 900 м
[Cb cap As op]
+6.6 +6.2 97 +4 +5 1005.0 896.8
12 17.01 штиль 0 6000 м слаб. дождь {гроза} 10/5 900 м
[Cb cap As op]
+7.2 +6.8 97 +6 +6 1001.7 893.2 4
15 17.01 ЮЗ 18 10 км {дождь} 3/3 1200 м
[Sc]
+10.4 -8.2 26 +6 +6 1005.5 896.5 +10.6
18 17.01 З 7 10 км {дождь} ясно +8.8 -8.8 28 +5 +5 1009.4 900.2 0.8
21 17.01 З 4 10 км ясно +8.0 -7.5 32 +6 +6 902.5
00 18.01 ЮЗ 10 10 км ясно +7.4 -7.8 33 +3 +3 1013.4 903.5
03 18.01 З 2 10 км ясно +6.4 -8.8 33 +5 +5 1014.8 905.1 +6.4
06 18.01 штиль 0 10 км ясно +5.6 -1.6 60 +5 +10 1015.6 905.5
09 18.01 С 4 10 км 6/6 1050 м
[Sc diur, vesp]
+8.8 -0.9 51 +6 +8 1015.0 905.5
12 18.01 штиль 0 10 км 8/8 900 м
[Cb calv]
+7.8 -3.1 46 +8 +8 1015.5 905.6
15 18.01 штиль 0 10 км 8/8 900 м
[Cb calv]
+5.2 -1.5 62 +5 +5 1017.3 906.6 +9.4
18 18.01 штиль 0 10 км 6/6 1050 м
[Sc diur, vesp]
+5.0 0.0 70 +4 +4 1018.1 907.1
21 18.01 штиль 0 10 км 8/4 1200 м
[Sc diur, vesp As trans]
+3.0 0.0 81 +2 +2 1017.5 906.8
00 19.01 штиль 0 10 км 8/4 1200 м
[Sc diur, vesp As trans]
+2.8 -0.3 80 +2 +2 1017.3 906.4
03 19.01 штиль 0 10 км 8/4 1200 м
[Sc As trans]
+1.6 -0.5 86 +1 +1 1018.7 906.9 +1.6
06 19.01 штиль 0 10 км 8/0
[Cs]
+3.4 -1.9 68 +3 +7 1021.4 909.6
09 19.01 Ю 3 10 км ясно +6.8 -4.7 44 +4 +11 1019.5 908.1
12 19.01 штиль 0 10 км 4/4 1200 м
[Sc]
+9.0 -8.5 28 +9 +11 1018.5 907.5
15 19.01 З 3 10 км ясно +6.6 -7.6 35 +4 +4 1021.5 909.5 +9.4
18 19.01 штиль 0 10 км ясно +2.4 -2.5 70 +2 +2 1023.5 910.9
21 19.01 штиль 0 10 км ясно -0.4 -3.3 81 -1 -1 910.9
00 20.01 штиль 0 10 км ясно 0.0 -2.8 81 -1 -1 1023.2 911.3
03 20.01 штиль 0 10 км ясно -2.6 -5.4 81 -4 -4 1025.2 912.1 -3.6
06 20.01 В 3 10 км ясно +2.4 -3.2 66 -1 +2 1026.6 913.5
09 20.01 В 3 10 км ясно +8.8 -7.0 32 +7 +13 1024.0 911.8
12 20.01 штиль 0 10 км ясно +11.0 -9.3 23 +11 +14 1022.6 911.0
15 20.01 штиль 0 10 км ясно +6.0 -9.8 31 +6 +6 1026.0 912.6 +12.0
18 20.01 штиль 0 10 км ясно +2.6 -4.3 60 +2 +2 1027.2 914.1
21 20.01 штиль 0 10 км ясно +1.0 -4.0 69 0 0 915.1
00 21.01 штиль 0 10 км ясно -1.0 -4.1 79 -2 -2 1027.8 915.5
03 21.01 штиль 0 10 км ясно -1.0 -5.4 72 -2 -2 1030.0 916.5 -1.8
06 21.01 штиль 0 10 км ясно +4.2 -3.5 57 +4 +9 1028.6 915.7

 

Местоположение метеостанции Кашан (Иран): широта 33.98 долгота 51.45 высота над уровнем моря 982 м.

В архиве по умолчанию представлена погода в Кашане за последнюю неделю. Архивные данные за месяц целиком и за предыдущие месяцы, начиная с января 2011 года, Вы можете получить, выбрав интересующий диапазон дат из раскрывающегося списка и нажав кнопку "Ввод!".


*Определитесь, кто Вы:
робот инопланетянин человек

Внимание! Время в таблицах - всемирное. Для получения местного времени необходимо прибавить поправку, которая равна 3.5 ч.

Смотрите также архив погоды в соседних городах и на ближайших метеорологических станциях:

Погода в Араке (Иран) (155 км)
Погода в Исфахане (Иран) (169 км)
Погода в Элигудерзе (Иран) (176 км)
Погода в Тегеране (Иран) (189 км)
Погода в Шехре-Корде (Иран) (197 км)
Погода в Семнане (Иран) (248 км)
Погода в Хамадане (Иран) (285 км)
Погода в Казвине (Иран) (285 км)
Погода в Хорремабаде (Иран) (290 км)
Погода в Ноушехре (Иран) (297 км)

Пояснения к столбцам:

Ветер - указаны скорость ветра в м/с - средняя за 10 мин, порывы в срок и между сроками (в фигурных скобках) и направление, откуда дует ветер: С - северный, СВ - северо-восточный, В - восточный, ЮВ - юго-восточный, Ю - южный, ЮЗ - юго-западный, З - западный, СЗ - северо-западный.
Видимость - горизонтальная дальность видимости в метрах или километрах. При видимости от 1 до 10 км при отсутствии осадков обычно наблюдается дымка, при ухудшении видимости до 1 км и менее - туман. В сухую погоду видимость может ухудшаться дымом, пылью или мглою.
Явления - указаны атмосферные явления, наблюдавшиеся в срок или в последний час перед сроком; фигурными скобками обозначены явления, наблюдавшиеся между сроками (за 1-3 часа до срока); квадратными скобками обозначены град или гололедные отложения с указанием их диаметра в мм.
Облачность - указаны через наклонную черту общая и нижняя облачность в баллах и высота нижней границы облаков в метрах; квадратными скобками обозначены формы облаков: Ci - перистые, Cs - перисто-слоистые, Cc - перисто-кучевые, Ac - высококучевые, As - высокослоистые, Sc - слоисто-кучевые, Ns - слоисто-дождевые, Cu - кучевые, Cb - кучево-дождевые. Подробнее классификацию облаков см. в Атласе облаков (PDF).
T - Температура воздуха - температура, измеренная на высоте 2 м над землей.
Td - Температура точки росы - температура, при понижении до которой содержащийся в воздухе водяной пар достигнет насыщения.
f - Относительная влажность воздуха - влажноcть воздуха, измеренная на высоте 2 м над землей.
Te - Эффективная температура - температура, которую ощущает одетый по сезону человек в тени. Характеристика душности погоды. При расчете учитывается влияние влажности воздуха и скорости ветра на теплоощущения человека.
Tes - Эффективная температура на солнце - температура, которую ощущает человек, с поправкой на солнечный нагрев. Характеристика знойности погоды. Зависит от высоты солнца над горизонтом, облачности и скорости ветра. Ночью, в пасмурную погоду, а также при ветре 12 м/с и более поправка равна нулю.
P - Атмосферное давление - приведенное к уровню моря атмосферное давление.
Po - Атмосферное давление - измеренное на уровне метеостанции атмосферное давление.
Tmin - Минимальная температура - минимум температуры воздуха на высоте 2 м над землей.
Tmax - Максимальная температура - максимум температуры воздуха на высоте 2 м над землей.
R - Количество осадков - Количество выпавших осадков за период времени, мм. При наведении курсора мыши на число - период времени, за который выпало указанное количество осадков.
R24 - Количество осадков - Количество выпавших осадков за 24 часа, мм.
S - Снежный покров - Высота снежного покрова, см. При наведении курсора мыши на число - состояние снежного покрова и степень покрытия местности в баллах.